| time (UTC) | temp C | wind direction | speed KPH | gust KPH | rain 1hr cm | rain 24hr cm | rain mn cm | humidity % | barometer mb |
| 20260507112327 | 7 | 323 | 8.0 | 16.1 | 0.03 | 0.25 | 0.18 | 83 | 1015.0 |
| 20260507111327 | 7 | 327 | 8.0 | 12.9 | 0.03 | 0.25 | 0.18 | 83 | 1015.0 |
| 20260507110327 | 7 | 329 | 9.7 | 16.1 | 0.03 | 0.25 | 0.18 | 83 | 1015.0 |
| 20260507105327 | 7 | 0 | 6.4 | 14.5 | 0.03 | 0.25 | 0.18 | 83 | 1015.0 |
| 20260507104327 | 7 | 15 | 8.0 | 14.5 | 0.00 | 0.23 | 0.15 | 83 | 1015.0 |
| 20260507103327 | 7 | 317 | 4.8 | 14.5 | 0.00 | 0.23 | 0.15 | 82 | 1014.8 |
| 20260507102327 | 7 | 323 | 6.4 | 9.7 | 0.00 | 0.23 | 0.15 | 83 | 1014.7 |
| 20260507101327 | 7 | 327 | 6.4 | 20.9 | 0.00 | 0.23 | 0.15 | 83 | 1014.6 |
| 20260507100327 | 7 | 344 | 4.8 | 14.5 | 0.03 | 0.23 | 0.15 | 83 | 1014.4 |
| 20260507095327 | 7 | 336 | 6.4 | 16.1 | 0.03 | 0.23 | 0.15 | 83 | 1014.3 |
| 20260507094327 | 7 | 336 | 6.4 | 9.7 | 0.03 | 0.23 | 0.15 | 83 | 1014.1 |
| 20260507093327 | 7 | 337 | 6.4 | 14.5 | 0.03 | 0.23 | 0.15 | 83 | 1014.0 |
| 20260507092327 | 7 | 304 | 4.8 | 12.9 | 0.03 | 0.23 | 0.15 | 83 | 1014.1 |
| 20260507091327 | 7 | 331 | 6.4 | 11.3 | 0.03 | 0.23 | 0.15 | 83 | 1013.9 |
| 20260507090327 | 7 | 329 | 8.0 | 19.3 | 0.00 | 0.20 | 0.13 | 83 | 1013.7 |
| 20260507085327 | 7 | 328 | 6.4 | 12.9 | 0.00 | 0.20 | 0.13 | 83 | 1013.7 |
| 20260507084327 | 7 | 341 | 8.0 | 17.7 | 0.00 | 0.20 | 0.13 | 83 | 1013.6 |
| 20260507083327 | 7 | 32 | 8.0 | 17.7 | 0.00 | 0.20 | 0.13 | 82 | 1013.5 |
| 20260507082327 | 7 | 345 | 8.0 | 14.5 | 0.00 | 0.20 | 0.13 | 82 | 1013.3 |
| 20260507081327 | 7 | 294 | 8.0 | 12.9 | 0.00 | 0.20 | 0.13 | 82 | 1013.1 |
| 20260507080327 | 7 | 343 | 8.0 | 16.1 | 0.00 | 0.20 | 0.13 | 81 | 1013.0 |
| 20260507075327 | 7 | 336 | 9.7 | 16.1 | 0.03 | 0.20 | 0.13 | 81 | 1012.9 |
| 20260507074327 | 7 | 315 | 8.0 | 14.5 | 0.03 | 0.20 | 0.13 | 81 | 1012.6 |
| 20260507073327 | 7 | 289 | 4.8 | 12.9 | 0.03 | 0.23 | 0.13 | 81 | 1012.5 |
| 20260507072327 | 7 | 327 | 4.8 | 14.5 | 0.03 | 0.23 | 0.13 | 82 | 1012.3 |
| 20260507071327 | 7 | 299 | 4.8 | 14.5 | 0.03 | 0.23 | 0.13 | 81 | 1012.3 |
| 20260507070327 | 7 | 313 | 4.8 | 9.7 | 0.03 | 0.23 | 0.13 | 82 | 1012.2 |
| 20260507065327 | 7 | 320 | 4.8 | 12.9 | 0.00 | 0.20 | 0.10 | 82 | 1012.1 |
| 20260507064327 | 7 | 300 | 4.8 | 9.7 | 0.00 | 0.20 | 0.10 | 82 | 1011.9 |
| 20260507063327 | 7 | 336 | 3.2 | 9.7 | 0.03 | 0.23 | 0.10 | 82 | 1011.9 |
| 20260507062327 | 7 | 320 | 3.2 | 6.4 | 0.03 | 0.23 | 0.10 | 81 | 1011.6 |
| 20260507061328 | 7 | 5 | 4.8 | 8.0 | 0.03 | 0.23 | 0.10 | 82 | 1011.5 |
| 20260507060328 | 7 | 56 | 8.0 | 17.7 | 0.03 | 0.23 | 0.10 | 81 | 1011.3 |
| 20260507055328 | 7 | 65 | 6.4 | 19.3 | 0.03 | 0.23 | 0.10 | 81 | 1011.3 |
| 20260507054328 | 7 | 57 | 4.8 | 8.0 | 0.03 | 0.23 | 0.10 | 81 | 1011.1 |
| 20260507053328 | 7 | 336 | 8.0 | 20.9 | 0.00 | 0.20 | 0.08 | 81 | 1011.0 |
| 20260507052328 | 7 | 348 | 6.4 | 19.3 | 0.00 | 0.20 | 0.08 | 81 | 1010.8 |
| 20260507051328 | 7 | 350 | 4.8 | 12.9 | 0.00 | 0.20 | 0.08 | 81 | 1010.7 |
| 20260507050328 | 7 | 286 | 6.4 | 16.1 | 0.00 | 0.20 | 0.08 | 81 | 1010.5 |
| 20260507045328 | 7 | 264 | 4.8 | 8.0 | 0.00 | 0.20 | 0.08 | 81 | 1010.3 |
| 20260507044328 | 7 | 19 | 6.4 | 11.3 | 0.00 | 0.20 | 0.08 | 81 | 1010.2 |
| 20260507043328 | 7 | 341 | 8.0 | 14.5 | 0.00 | 0.23 | 0.08 | 81 | 1010.2 |
| 20260507042328 | 8 | 351 | 9.7 | 17.7 | 0.03 | 0.23 | 0.08 | 80 | 1010.1 |
| 20260507041328 | 8 | 316 | 4.8 | 14.5 | 0.03 | 0.23 | 0.08 | 80 | 1009.9 |
| 20260507040328 | 8 | 333 | 6.4 | 9.7 | 0.03 | 0.23 | 0.08 | 80 | 1009.8 |
| 20260507035328 | 8 | 331 | 6.4 | 16.1 | 0.03 | 0.23 | 0.08 | 80 | 1009.7 |
| 20260507034328 | 8 | 344 | 6.4 | 12.9 | 0.03 | 0.23 | 0.08 | 80 | 1009.7 |
| 20260507033328 | 8 | 331 | 6.4 | 16.1 | 0.03 | 0.33 | 0.08 | 80 | 1009.7 |
| 20260507032328 | 8 | 355 | 4.8 | 14.5 | 0.00 | 0.30 | 0.05 | 80 | 1009.6 |
| 20260507031328 | 8 | 332 | 6.4 | 12.9 | 0.00 | 0.30 | 0.05 | 80 | 1009.4 |
| 20260507030328 | 8 | 331 | 6.4 | 12.9 | 0.03 | 0.30 | 0.05 | 80 | 1009.5 |
| 20260507025328 | 8 | 328 | 6.4 | 16.1 | 0.03 | 0.30 | 0.05 | 80 | 1009.4 |
| 20260507024328 | 8 | 318 | 6.4 | 14.5 | 0.03 | 0.30 | 0.05 | 80 | 1009.3 |
| 20260507023328 | 8 | 278 | 4.8 | 16.1 | 0.03 | 0.43 | 0.05 | 80 | 1009.3 |
| 20260507022328 | 8 | 292 | 6.4 | 11.3 | 0.03 | 0.43 | 0.05 | 80 | 1009.3 |
| 20260507021328 | 8 | 5 | 4.8 | 11.3 | 0.03 | 0.43 | 0.05 | 80 | 1009.3 |
| 20260507020328 | 8 | 288 | 6.4 | 12.9 | 0.00 | 0.41 | 0.03 | 80 | 1009.1 |
| 20260507015328 | 8 | 302 | 6.4 | 14.5 | 0.00 | 0.41 | 0.03 | 80 | 1009.0 |
| 20260507014328 | 8 | 292 | 8.0 | 12.9 | 0.00 | 0.41 | 0.03 | 80 | 1009.0 |
| 20260507013328 | 8 | 290 | 8.0 | 12.9 | 0.00 | 0.56 | 0.03 | 80 | 1009.0 |
| 20260507012328 | 8 | 316 | 6.4 | 17.7 | 0.00 | 0.56 | 0.03 | 80 | 1009.0 |
| 20260507011328 | 8 | 300 | 6.4 | 17.7 | 0.00 | 0.56 | 0.03 | 80 | 1009.0 |
| 20260507010328 | 8 | 306 | 4.8 | 14.5 | 0.00 | 0.56 | 0.03 | 80 | 1008.9 |
| 20260507005328 | 8 | 286 | 6.4 | 12.9 | 0.00 | 0.56 | 0.03 | 80 | 1008.9 |
| 20260507004328 | 8 | 281 | 6.4 | 9.7 | 0.00 | 0.56 | 0.03 | 80 | 1008.8 |
| 20260507003328 | 8 | 273 | 4.8 | 12.9 | 0.00 | 0.69 | 0.03 | 80 | 1008.8 |
| 20260507002328 | 8 | 306 | 6.4 | 14.5 | 0.00 | 0.69 | 0.03 | 80 | 1008.8 |
| 20260507001328 | 8 | 283 | 6.4 | 16.1 | 0.00 | 0.69 | 0.03 | 80 | 1008.8 |
| 20260507000328 | 8 | 289 | 3.2 | 16.1 | 0.00 | 0.69 | 0.03 | 80 | 1008.7 |
| 20260506235329 | 8 | 304 | 4.8 | 12.9 | 0.00 | 0.69 | 0.03 | 80 | 1008.7 |
| 20260506234328 | 8 | 274 | 3.2 | 11.3 | 0.03 | 0.69 | 0.03 | 80 | 1008.8 |
| 20260506233328 | 8 | 295 | 3.2 | 6.4 | 0.03 | 0.81 | 0.03 | 80 | 1008.7 |
| 20260506232328 | 8 | 271 | 3.2 | 9.7 | 0.03 | 0.81 | 0.03 | 80 | 1008.5 |
| 20260506231328 | 8 | 284 | 3.2 | 9.7 | 0.03 | 0.81 | 0.03 | 80 | 1008.4 |
| 20260506230328 | 8 | 266 | 3.2 | 9.7 | 0.03 | 0.81 | 0.03 | 80 | 1008.5 |
| 20260506225328 | 8 | 275 | 3.2 | 9.7 | 0.03 | 0.81 | 0.03 | 80 | 1008.5 |
| 20260506224328 | 8 | 290 | 3.2 | 6.4 | 0.00 | 0.79 | 0.00 | 81 | 1008.5 |
| 20260506223329 | 8 | 290 | 3.2 | 6.4 | 0.00 | 0.94 | 0.00 | 81 | 1008.4 |
| 20260506222329 | 8 | 317 | 4.8 | 8.0 | 0.00 | 0.94 | 0.00 | 81 | 1008.3 |
| 20260506221329 | 8 | 287 | 4.8 | 11.3 | 0.00 | 0.94 | 0.97 | 81 | 1008.3 |
| 20260506220329 | 8 | 290 | 3.2 | 9.7 | 0.00 | 0.94 | 0.97 | 81 | 1008.4 |
| 20260506215329 | 8 | 296 | 3.2 | 6.4 | 0.00 | 0.94 | 0.97 | 81 | 1008.3 |
| 20260506214329 | 8 | 302 | 4.8 | 3.2 | 0.00 | 0.94 | 0.97 | 81 | 1008.3 |
| 20260506213329 | 8 | 285 | 3.2 | 9.7 | 0.00 | 0.97 | 0.97 | 81 | 1008.2 |
| 20260506212329 | 8 | 297 | 3.2 | 6.4 | 0.00 | 0.97 | 0.97 | 81 | 1008.2 |
| 20260506211329 | 8 | 304 | 3.2 | 8.0 | 0.00 | 0.97 | 0.97 | 81 | 1008.1 |
| 20260506210329 | 8 | 282 | 4.8 | 11.3 | 0.00 | 0.97 | 0.97 | 81 | 1008.0 |
| 20260506205329 | 8 | 295 | 4.8 | 6.4 | 0.03 | 0.97 | 0.97 | 81 | 1008.0 |
| 20260506204329 | 8 | 257 | 4.8 | 11.3 | 0.03 | 0.97 | 0.97 | 81 | 1008.1 |
| 20260506203329 | 8 | 281 | 1.6 | 8.0 | 0.03 | 0.97 | 0.97 | 81 | 1008.0 |
| 20260506202329 | 8 | 315 | 4.8 | 9.7 | 0.03 | 0.97 | 0.97 | 81 | 1007.9 |
| 20260506201329 | 9 | 346 | 3.2 | 8.0 | 0.03 | 0.97 | 0.97 | 80 | 1007.9 |
| 20260506200329 | 9 | 292 | 4.8 | 8.0 | 0.03 | 0.97 | 0.97 | 80 | 1007.9 |
| 20260506195329 | 9 | 328 | 4.8 | 11.3 | 0.00 | 0.94 | 0.94 | 80 | 1007.7 |
| 20260506194329 | 9 | 299 | 6.4 | 12.9 | 0.00 | 0.94 | 0.94 | 80 | 1007.7 |
| 20260506193329 | 9 | 305 | 6.4 | 14.5 | 0.00 | 0.94 | 0.94 | 80 | 1007.7 |
| 20260506192329 | 9 | 293 | 3.2 | 11.3 | 0.00 | 0.94 | 0.94 | 80 | 1007.6 |
| 20260506191329 | 9 | 340 | 4.8 | 14.5 | 0.00 | 0.94 | 0.94 | 81 | 1007.4 |
| 20260506190329 | 9 | 302 | 4.8 | 11.3 | 0.00 | 0.94 | 0.94 | 81 | 1007.1 |
| 20260506185329 | 10 | 288 | 3.2 | 11.3 | 0.00 | 0.94 | 0.94 | 80 | 1007.1 |
| 20260506184329 | 10 | 329 | 6.4 | 8.0 | 0.00 | 0.94 | 0.94 | 80 | 1007.0 |
| 20260506183329 | 10 | 266 | 4.8 | 6.4 | 0.00 | 0.94 | 0.94 | 80 | 1006.7 |
| 20260506182329 | 10 | 284 | 6.4 | 11.3 | 0.00 | 0.94 | 0.94 | 81 | 1006.7 |
| 20260506181329 | 10 | 286 | 8.0 | 14.5 | 0.00 | 0.94 | 0.94 | 81 | 1006.6 |
| 20260506180329 | 10 | 304 | 4.8 | 11.3 | 0.00 | 0.94 | 0.94 | 81 | 1006.6 |
| 20260506175329 | 10 | 319 | 8.0 | 16.1 | 0.00 | 0.94 | 0.94 | 81 | 1006.6 |
| 20260506174329 | 10 | 269 | 8.0 | 12.9 | 0.00 | 0.94 | 0.94 | 81 | 1006.5 |
| 20260506173329 | 10 | 308 | 4.8 | 11.3 | 0.00 | 0.94 | 0.94 | 81 | 1006.3 |
| 20260506172329 | 10 | 323 | 6.4 | 16.1 | 0.00 | 0.94 | 0.94 | 81 | 1006.3 |
| 20260506171329 | 10 | 280 | 6.4 | 12.9 | 0.00 | 0.94 | 0.94 | 81 | 1006.3 |
| 20260506170329 | 10 | 273 | 6.4 | 12.9 | 0.00 | 0.94 | 0.94 | 81 | 1006.3 |
| 20260506165329 | 10 | 305 | 8.0 | 17.7 | 0.00 | 0.94 | 0.94 | 82 | 1006.2 |
| 20260506164329 | 10 | 345 | 4.8 | 12.9 | 0.00 | 0.94 | 0.94 | 82 | 1006.2 |
| 20260506163329 | 10 | 325 | 6.4 | 16.1 | 0.00 | 0.94 | 0.94 | 82 | 1006.0 |
| 20260506162329 | 10 | 309 | 9.7 | 16.1 | 0.00 | 0.94 | 0.94 | 82 | 1006.1 |
| 20260506161329 | 11 | 296 | 8.0 | 12.9 | 0.00 | 0.94 | 0.94 | 82 | 1006.1 |
| 20260506160329 | 11 | 327 | 6.4 | 14.5 | 0.00 | 0.94 | 0.94 | 82 | 1006.1 |
| 20260506155329 | 11 | 348 | 8.0 | 16.1 | 0.00 | 0.94 | 0.94 | 82 | 1006.0 |
| 20260506154329 | 11 | 290 | 8.0 | 16.1 | 0.00 | 0.94 | 0.94 | 82 | 1005.9 |
| 20260506153329 | 11 | 317 | 6.4 | 16.1 | 0.00 | 0.94 | 0.94 | 82 | 1005.9 |
| 20260506152330 | 11 | 324 | 6.4 | 16.1 | 0.00 | 0.94 | 0.94 | 82 | 1006.0 |
| 20260506151330 | 11 | 306 | 6.4 | 12.9 | 0.00 | 0.94 | 0.94 | 82 | 1006.0 |
| 20260506150330 | 11 | 277 | 4.8 | 12.9 | 0.00 | 0.94 | 0.94 | 81 | 1006.0 |
| 20260506145330 | 11 | 256 | 4.8 | 12.9 | 0.00 | 0.94 | 0.94 | 81 | 1005.8 |
| 20260506144330 | 11 | 340 | 8.0 | 12.9 | 0.00 | 0.94 | 0.94 | 81 | 1005.8 |
| 20260506143330 | 11 | 296 | 6.4 | 12.9 | 0.03 | 0.94 | 0.94 | 81 | 1005.8 |
| 20260506142330 | 11 | 309 | 6.4 | 11.3 | 0.03 | 0.94 | 0.94 | 81 | 1005.8 |
| 20260506141330 | 11 | 332 | 4.8 | 14.5 | 0.03 | 0.94 | 0.94 | 81 | 1005.7 |
| 20260506140330 | 11 | 327 | 4.8 | 12.9 | 0.03 | 0.94 | 0.94 | 81 | 1005.9 |
| 20260506135330 | 11 | 300 | 6.4 | 11.3 | 0.03 | 0.94 | 0.94 | 81 | 1006.0 |
| 20260506134330 | 11 | 297 | 6.4 | 14.5 | 0.03 | 0.94 | 0.94 | 81 | 1005.9 |
| 20260506133330 | 11 | 302 | 8.0 | 14.5 | 0.00 | 0.91 | 0.91 | 81 | 1005.8 |
| 20260506132330 | 11 | 254 | 4.8 | 14.5 | 0.03 | 0.91 | 0.91 | 80 | 1005.8 |
| 20260506131330 | 11 | 336 | 6.4 | 12.9 | 0.03 | 0.91 | 0.91 | 80 | 1005.7 |
| 20260506130330 | 11 | 342 | 4.8 | 8.0 | 0.03 | 0.91 | 0.91 | 81 | 1005.7 |
| 20260506125330 | 11 | 335 | 4.8 | 8.0 | 0.03 | 0.91 | 0.91 | 81 | 1005.7 |
| 20260506124330 | 11 | 333 | 6.4 | 12.9 | 0.03 | 0.91 | 0.91 | 81 | 1005.7 |
| 20260506123330 | 11 | 317 | 4.8 | 11.3 | 0.03 | 0.91 | 0.91 | 81 | 1005.7 |
| 20260506122330 | 11 | 323 | 4.8 | 12.9 | 0.00 | 0.89 | 0.89 | 81 | 1005.6 |
| 20260506121330 | 11 | 298 | 4.8 | 12.9 | 0.00 | 0.89 | 0.89 | 81 | 1005.6 |
| 20260506120330 | 11 | 298 | 4.8 | 11.3 | 0.00 | 0.89 | 0.89 | 81 | 1005.6 |
| 20260506115330 | 11 | 333 | 4.8 | 9.7 | 0.00 | 0.89 | 0.89 | 81 | 1005.4 |
| 20260506114330 | 11 | 272 | 4.8 | 9.7 | 0.00 | 0.89 | 0.89 | 81 | 1005.4 |
| 20260506113330 | 11 | 288 | 3.2 | 9.7 | 0.00 | 0.89 | 0.89 | 81 | 1005.3 |